Weather in Dhale

Yemen     13°42′04″N   44°43′47″E
temp.,
°C
wind,
m/s
gust,
m/s
humid.,
%
clouds,
%
prec.,
mm/h
press.,
hPa
HPBL,
m
20 january, thu
thu2000:00+16sse11917 0.0 101968
03:00+15wsw0093100 0.0 101724
06:00+14ssw1195100 0.0 101916
09:00+18ssw1170100 0.0 1020463
12:00+23s323860 0.0 10171398
15:00+24s53390 0.0 10141677
18:00+20s435772 0.0 1016724
21:00+17s10837 0.0 1019212
21 january, fri
fri2100:00+17wnw11882 0.0 101993
03:00+16wnw00864 0.0 101711
06:00+15nnw119045 0.0 101911
09:00+19se12615 0.0 1020632
12:00+25sse442954 0.0 10171994
15:00+24s644377 0.0 10141411
18:00+20s435954 0.0 1017781
21:00+18sse1173100 0.0 1020237
22 january, sat
sat2200:00+17ese1167100 0.0 101926
03:00+16e2258100 0.0 101816
06:00+14ene1165100 0.0 101915
09:00+17se115314 0.0 1021576
12:00+21sse423952 0.0 10181398
15:00+23s43389 0.0 10141602
18:00+19s4356100 0.0 1016618
21:00+16sse2281100 0.0 1019285
23 january, sun
sun2300:00+15s008793 0.0 1018194
03:00+15w008836 0.0 101625
06:00+14se009695 0.0 101815
09:00+17sse2171100 0.0 1019556
12:00+20s3255100 0.0 10161111
15:00+22s5353100 0.0 10141142
18:00+18s3269100 0.0 1015464
21:00+16s1083100 0.0 1018195
24 january, mon
mon2400:00+16ene018755 0.0 101651
03:00+15nw118816 0.0 101511
06:00+14se007410 0.0 101611
09:00+18s11577 0.0 1018481
12:00+22s44449 0.0 10151421
15:00+21s64597 0.0 1013763
18:00+18sse327572 0.0 1015461
21:00+16s1186100 0.0 1018327